Temp
73 73 73 74 76 77 76 76 76 75 75 76 76 76 73 72 69 67 65 67 68 73 74 70 73 75 74 71 72 71 73 68 64 71 69 68 68 57 53 52 54 55 54 55 53 53 55 56 56 57 58 59 59 58 58 58 57 57 57 58 58 57 55 55 55 56 57 58 58 56 56 56 55 55
73 74 74 74 75 76 74 74 74 74 74 74 75 75 75 75 71 70 68 68 70 71 72 74 73 72 73 72 70 72 73 61 65 70 71 68 68 53 53 53 52 52 52 52 51 52 54 55 55 56 57 58 58 58 57 57 56 56 57 57 56 54 54 54 55 56 57 57 56 56 56 55 55 55
73 73 72 73 74 74 72 73 73 73 73 73 74 74 74 74 72 71 71 67 72 73 68 71 76 73 73 73 71 71 73 67 66 68 67 70 58 53 60 53 53 52 51 51 52 55 55 53 53 54 56 57 57 57 57 56 55 55 55 54 53 54 53 53 54 56 57 57 56 56 55 55 54 54
73 73 72 72 73 72 73 72 72 72 73 73 74 74 73 73 72 71 70 68 68 70 71 71 72 74 72 73 72 72 72 66 59 69 68 68 59 66 68 55 53 53 51 51 51 52 52 51 52 54 55 56 56 56 54 53 53 53 52 52 52 51 51 53 54 55 56 56 56 55 54 54 54 53
72 73 73 73 72 72 72 72 72 73 73 72 72 73 73 72 72 71 69 68 68 67 71 70 70 72 72 71 72 73 71 69 69 65 70 68 67 68 68 69 54 52 52 50 49 49 49 50 52 54 53 53 52 52 50 50 51 51 52 50 49 49 51 52 52 52 54 55 55 54 53 53 53 52
72 72 73 73 72 72 72 71 73 73 73 74 73 72 72 73 72 72 71 70 69 65 66 68 71 70 71 70 74 70 68 68 69 71 70 69 69 68 70 71 67 50 54 50 50 50 49 49 49 49 49 48 48 48 48 48 47 50 50 47 46 49 51 51 51 51 53 53 53 53 52 52 52 52
72 71 71 71 71 70 70 70 71 71 72 74 74 72 73 72 72 72 72 70 69 68 66 67 68 68 68 67 72 71 70 69 69 69 69 70 72 72 69 69 72 50 54 50 51 49 49 49 49 48 48 48 48 48 48 48 48 48 48 48 48 49 49 48 48 50 51 52 52 52 51 51 52 53
72 71 70 70 69 69 68 69 69 70 71 71 72 72 72 71 71 71 71 71 70 69 65 63 69 69 67 67 71 71 70 69 68 68 70 70 70 71 72 72 73 59 53 52 51 50 50 50 49 48 48 49 49 48 47 47 48 48 48 48 49 48 48 47 47 47 49 49 50 50 50 50 51 52
71 71 70 70 70 69 67 67 68 70 68 72 71 71 73 72 71 70 70 71 70 66 64 66 68 70 69 69 69 69 68 66 67 67 67 69 70 69 71 71 71 61 53 51 51 51 51 51 50 49 50 49 49 48 48 48 49 49 49 49 49 48 47 47 47 47 47 47 48 50 50 49 50 51
72 70 71 70 70 69 68 67 68 69 69 71 71 71 72 73 70 69 68 67 66 66 67 67 65 67 66 65 65 67 66 65 66 68 69 69 67 66 66 69 70 70 70 68 66 57 55 52 48 52 52 51 49 48 48 49 50 50 49 49 49 48 47 47 47 47 47 47 47 47 48 48 49 51
71 71 71 69 69 69 69 68 67 68 68 68 69 69 69 70 68 66 66 67 66 66 67 67 67 66 66 65 64 67 67 64 63 62 64 65 69 69 67 66 69 71 69 63 56 58 59 57 60 57 52 51 50 49 50 51 51 51 50 49 48 47 47 47 47 47 46 47 46 46 45 46 47 49
71 70 70 70 69 69 69 69 69 68 67 68 68 68 68 67 66 66 66 66 67 66 66 66 66 67 65 64 65 66 64 63 63 65 63 61 63 65 67 67 66 68 67 67 69 60 58 58 57 51 51 52 52 51 52 52 51 52 51 49 47 47 47 47 47 47 47 47 47 46 46 45 45 47
70 70 69 69 70 69 67 63 64 64 64 68 67 67 67 66 65 64 66 67 67 67 66 66 66 65 64 65 64 63 62 62 63 65 64 62 64 65 66 68 68 68 66 67 68 69 68 67 68 69 70 69 58 59 53 58 56 54 50 48 47 47 47 47 47 47 47 47 47 46 46 45 45 45
69 70 70 69 65 62 60 58 54 52 55 56 63 67 65 63 62 63 65 66 67 66 65 65 65 63 63 65 64 63 64 65 64 63 62 61 64 64 64 65 67 67 66 64 63 67 70 68 68 70 69 70 69 69 69 67 59 54 48 48 48 47 47 47 47 47 47 47 46 46 46 45 45 44
68 69 71 69 63 62 60 59 49 50 49 47 48 51 54 56 63 65 64 64 65 65 65 66 64 63 63 64 65 64 65 64 63 63 63 63 63 62 60 59 64 68 64 63 63 64 68 68 67 68 69 70 69 69 68 55 52 50 49 48 48 47 47 47 47 47 46 46 46 46 45 45 45 44
69 68 68 68 67 66 67 67 61 54 46 44 44 45 48 49 47 47 58 62 64 64 64 64 64 62 62 64 64 65 64 64 64 63 63 63 62 60 60 61 60 66 66 63 62 62 68 69 67 66 68 69 69 68 61 54 51 50 49 49 48 47 47 47 47 47 46 46 46 45 45 45 45 44
69 68 67 67 67 67 62 64 66 64 58 47 44 45 46 45 46 47 45 46 58 64 64 63 61 62 62 64 65 65 64 64 62 63 63 64 63 62 61 62 62 64 66 63 62 61 65 68 67 66 68 69 68 69 56 51 52 50 49 49 48 47 47 47 47 46 46 46 46 46 45 45 45 44
69 68 68 67 66 66 65 67 66 65 64 61 60 60 62 63 55 44 43 43 41 51 61 62 59 61 64 63 65 65 65 62 62 62 62 63 62 61 60 62 62 65 67 63 61 60 65 68 66 65 67 69 68 69 62 53 51 49 50 50 49 48 47 47 47 47 46 46 46 46 46 45 45 45
69 69 68 68 67 66 65 66 65 65 65 64 63 63 63 65 64 63 61 61 62 62 60 61 61 62 64 65 65 66 65 64 64 64 62 62 61 61 63 63 65 66 69 65 62 58 64 67 65 65 67 68 68 69 61 53 52 51 50 50 49 49 48 47 47 47 47 47 47 46 46 45 45 45
70 69 69 68 67 67 66 58 50 58 66 65 64 63 64 64 64 64 59 52 55 60 61 60 61 63 58 49 59 58 62 65 64 63 64 63 62 61 61 61 65 63 68 67 63 60 62 66 64 65 68 68 66 67 67 59 56 53 51 50 49 48 48 47 48 48 48 47 47 47 46 46 45 46
69 69 69 69 68 66 67 52 47 49 55 64 64 63 63 63 63 63 61 46 42 41 42 41 40 40 40 43 43 41 40 52 56 61 60 60 63 62 60 61 63 64 67 67 66 62 60 64 64 64 66 66 65 66 67 68 58 55 52 50 49 48 48 48 48 49 48 48 47 47 47 46 46 46
69 68 61 65 68 66 65 45 46 45 56 64 64 63 62 61 61 62 63 62 58 43 41 41 40 41 42 41 39 40 41 40 47 60 59 62 64 61 61 60 62 64 65 68 66 61 61 64 65 63 65 66 67 67 68 67 66 59 58 57 54 52 50 50 49 48 49 49 48 48 46 47 47 59
69 68 62 58 62 66 56 41 44 44 55 63 63 63 62 61 61 62 63 62 61 61 60 60 57 54 47 51 57 57 40 42 47 58 61 63 62 61 61 61 61 60 64 65 65 60 61 61 64 63 61 60 64 67 67 68 68 69 69 68 69 55 52 52 50 49 50 50 50 49 46 47 48 62
68 67 66 59 45 42 41 42 42 43 47 61 64 63 62 61 60 64 63 63 63 62 62 63 64 63 64 62 62 64 59 53 54 57 61 63 63 62 62 62 62 60 62 66 64 61 62 63 62 65 63 59 57 63 67 67 68 69 68 68 67 60 58 57 57 54 52 51 51 50 48 49 48 61
67 67 67 67 48 41 41 42 41 43 43 48 63 63 63 64 62 60 64 61 55 61 62 62 62 63 64 64 64 64 64 62 61 61 62 63 64 63 62 62 61 62 64 65 57 64 60 62 61 62 62 63 62 61 64 65 67 67 67 67 66 67 67 67 63 67 57 54 54 52 53 51 47 52
68 67 68 69 53 41 41 41 41 42 43 42 60 62 52 43 45 62 64 64 62 61 61 62 63 64 64 65 65 65 66 66 66 65 65 65 65 65 65 63 62 60 61 63 51 63 61 60 61 60 61 60 60 62 60 62 65 66 67 67 66 66 66 66 66 66 65 65 66 59 58 49 49 50
68 69 68 65 47 42 41 41 41 42 41 43 56 48 44 43 42 51 64 64 62 61 62 63 63 63 64 64 65 65 66 67 67 67 66 66 66 66 66 66 66 65 66 67 67 66 63 61 63 60 59 59 58 59 60 59 61 65 65 67 66 66 67 67 65 65 65 65 64 55 54 55 52 51
69 68 68 61 41 42 41 40 40 41 42 55 47 44 42 40 44 60 62 60 60 58 60 60 61 62 64 65 65 65 66 67 67 67 67 67 67 66 66 67 65 67 67 68 68 67 65 63 62 63 61 59 58 57 57 61 62 63 62 64 65 65 66 66 65 64 64 65 64 64 63 63 64 63
70 55 46 41 41 42 41 40 40 40 41 42 43 42 40 45 59 59 61 61 60 59 59 60 62 63 64 65 66 66 66 66 66 65 65 65 66 66 66 66 66 66 66 66 66 67 67 65 63 62 61 61 60 59 59 58 60 61 62 62 61 64 65 66 65 64 63 64 63 63 62 62 62 62
45 41 42 40 40 40 43 49 54 57 56 43 41 40 42 56 60 61 60 61 60 60 61 62 62 64 66 66 67 66 65 64 64 64 64 64 64 65 64 64 65 68 68 68 68 68 69 67 65 62 61 61 61 60 60 60 59 61 60 61 62 63 66 65 65 64 62 61 62 63 63 64 63 61
59 53 53 54 47 49 44 47 48 51 51 51 50 53 54 58 61 61 62 62 62 62 62 62 64 65 66 67 66 64 63 62 64 65 64 64 65 65 66 64 63 64 67 69 70 69 68 67 66 64 59 59 60 60 61 61 60 60 62 63 62 57 62 64 64 64 63 62 62 63 63 63 63 62
63 60 47 47 56 55 55 56 60 60 60 58 56 59 60 60 60 58 54 55 63 64 65 65 65 64 66 65 65 64 64 65 65 66 64 63 64 64 65 62 61 63 65 66 67 67 61 65 64 64 63 60 58 59 61 61 60 61 61 62 62 63 63 63 63 63 63 62 61 61 62 61 61 62
60 59 59 60 60 60 57 53 61 61 60 59 60 60 62 62 63 62 62 60 61 62 62 62 62 63 65 64 64 63 64 63 64 66 65 64 63 64 64 61 62 62 63 64 65 66 67 67 65 63 63 64 64 62 60 58 60 61 60 61 62 62 63 63 63 62 62 62 60 60 60 60 61 61
61 61 61 61 59 60 61 60 57 59 60 60 61 62 54 61 64 63 62 63 63 63 62 63 63 63 63 64 64 64 62 63 64 64 57 62 64 62 62 61 61 63 62 63 64 64 64 64 66 66 64 60 63 62 62 60 59 60 61 62 62 61 62 62 62 62 61 61 59 58 59 59 61 63
56 58 57 58 61 61 63 61 59 59 59 55 59 62 62 62 62 60 63 64 61 59 57 60 62 62 61 61 62 62 62 62 62 63 63 62 62 62 62 61 62 61 62 62 62 63 63 63 63 62 62 62 61 64 58 62 60 59 61 61 62 60 60 61 61 61 61 61 62 56 56 58 59 62
56 59 60 60 63 64 61 60 58 61 61 61 62 61 58 60 62 62 61 62 64 64 63 59 58 59 60 60 59 61 60 58 61 62 62 63 62 62 63 62 61 61 62 63 63 63 63 63 62 59 57 57 55 54 57 53 55 61 59 58 60 59 60 61 61 61 61 60 60 59 52 53 57 59
59 60 63 62 63 63 61 62 62 62 62 63 63 64 62 61 63 65 65 63 63 60 60 59 58 58 57 54 54 53 55 59 54 58 59 61 61 61 60 60 57 60 61 61 62 63 63 62 62 60 57 53 53 51 53 57 49 50 60 59 55 60 54 59 59 58 60 60 59 59 57 53 55 60
59 63 62 61 61 63 62 62 62 62 63 63 64 64 66 68 68 66 66 64 61 57 56 58 56 56 57 54 55 56 58 56 59 53 56 59 53 58 59 59 59 61 61 62 62 63 63 62 60 59 58 51 52 51 51 57 58 56 50 58 56 54 58 55 55 53 53 60 58 59 60 53 57 60
62 62 61 61 61 61 61 62 62 64 64 65 64 65 65 64 64 64 63 61 61 59 59 59 58 56 55 59 58 57 58 58 57 54 53 58 59 60 59 59 58 61 61 60 63 64 63 60 60 59 59 56 52 54 55 55 55 60 51 44 56 53 51 54 51 52 55 55 55 59 61 62 60 48
62 62 61 60 61 62 63 65 65 65 64 64 64 65 64 60 62 61 60 56 57 59 60 59 56 56 57 59 58 59 59 59 57 57 54 57 56 58 59 58 56 60 60 58 56 61 62 60 60 60 60 60 57 54 59 58 59 61 56 49 41 49 49 54 50 50 53 54 52 55 54 56 55 59
60 60 60 61 62 64 64 65 66 66 65 64 64 59 63 63 61 60 60 59 53 57 56 56 57 57 55 58 57 58 55 57 57 56 56 55 54 54 53 50 53 58 58 55 59 59 59 62 51 42 55 60 58 62 58 56 54 56 56 50 42 40 40 43 53 53 49 53 55 51 52 51 52 54
62 62 63 63 64 66 67 65 64 64 64 64 64 62 62 61 60 53 56 51 58 50 55 56 56 56 56 57 57 55 56 56 56 55 55 56 57 55 52 52 55 56 55 57 54 60 63 65 56 58 63 60 58 55 53 54 53 56 57 55 49 42 39 37 38 42 53 54 50 51 49 51 52 51
62 64 65 64 65 65 65 64 64 64 63 64 63 63 62 56 59 55 56 51 54 53 54 56 57 58 58 58 58 57 57 55 54 55 55 53 54 55 56 56 55 57 59 55 59 60 63 65 65 63 58 57 57 56 53 53 54 55 55 57 54 52 47 40 39 37 38 37 41 46 50 46 47 45
64 64 65 64 63 64 64 64 64 64 64 63 62 62 52 57 53 52 54 53 56 56 56 57 58 58 57 58 58 58 58 58 56 52 54 54 54 55 55 56 55 54 58 59 60 60 60 61 58 61 58 57 56 56 54 52 55 55 56 56 54 53 52 51 49 42 40 38 36 36 35 37 38 38
63 64 64 64 64 64 64 64 63 64 64 62 59 54 55 55 56 56 56 56 56 56 55 57 57 58 57 57 58 57 57 53 55 56 56 56 56 56 55 55 57 57 58 58 59 58 59 60 60 59 58 57 56 55 53 53 54 53 54 53 51 54 56 54 53 52 50 47 41 37 38 38 38 37
MSLP
1019.49 1019.61 1019.69 1019.69 1019.57 1019.49 1019.57 1019.81 1019.85 1019.97 1020.01 1019.97 1019.97 1020.01 1020.41 1020.57 1020.89 1021.17 1021.69 1021.49 1021.49 1021.05 1021.41 1022.01 1022.01 1022.13 1022.41 1022.81 1022.93 1023.13 1022.85 1023.01 1023.57 1023.41 1023.33 1023.41 1023.45 1023.93 1024.13 1024.25 1024.25 1024.17 1024.09 1023.97 1023.89 1023.77 1023.57 1023.41 1023.25 1023.05 1022.89 1022.69 1022.57 1022.41 1022.29 1022.09 1021.93 1021.77 1021.49 1021.25 1021.05 1020.85 1020.65 1020.41 1020.09 1019.69 1019.29 1018.89 1018.57 1018.25 1017.93 1017.57 1017.21 1016.85
1019.21 1019.33 1019.41 1019.53 1019.61 1019.45 1019.81 1019.89 1020.01 1020.09 1020.17 1020.21 1020.13 1020.13 1020.05 1020.13 1020.57 1020.49 1020.89 1020.69 1020.81 1021.01 1021.37 1021.49 1021.57 1022.17 1022.29 1022.57 1022.77 1022.69 1022.69 1023.21 1023.49 1023.41 1023.21 1023.41 1023.41 1023.85 1023.97 1024.09 1024.09 1024.05 1023.97 1023.89 1023.81 1023.65 1023.49 1023.33 1023.17 1022.97 1022.81 1022.61 1022.49 1022.33 1022.13 1021.97 1021.81 1021.61 1021.37 1021.17 1020.97 1020.77 1020.57 1020.25 1019.93 1019.53 1019.13 1018.77 1018.45 1018.09 1017.77 1017.41 1017.01 1016.65
1019.09 1019.25 1019.49 1019.49 1019.57 1019.69 1019.93 1019.97 1020.09 1020.13 1020.21 1020.21 1020.17 1020.13 1020.13 1020.09 1020.29 1020.45 1020.41 1020.93 1020.17 1020.57 1021.49 1021.41 1021.21 1021.77 1022.09 1022.29 1022.49 1022.65 1022.57 1022.93 1023.41 1023.41 1023.41 1023.25 1023.53 1023.77 1023.69 1023.85 1023.89 1023.85 1023.81 1023.73 1023.61 1023.45 1023.33 1023.25 1023.09 1022.93 1022.73 1022.53 1022.37 1022.21 1022.01 1021.85 1021.65 1021.49 1021.29 1021.13 1020.93 1020.69 1020.41 1020.09 1019.77 1019.37 1019.01 1018.65 1018.33 1017.97 1017.61 1017.25 1016.89 1016.49
1019.01 1019.13 1019.37 1019.53 1019.53 1019.73 1019.81 1020.01 1020.05 1020.09 1020.09 1020.13 1020.13 1020.13 1020.21 1020.25 1020.37 1020.49 1020.61 1020.81 1020.57 1020.97 1021.01 1021.33 1021.45 1021.65 1021.97 1022.13 1022.21 1022.33 1022.45 1023.01 1023.45 1023.25 1023.17 1023.13 1023.53 1023.37 1023.05 1023.29 1023.49 1023.57 1023.57 1023.53 1023.45 1023.33 1023.21 1023.13 1022.97 1022.77 1022.61 1022.45 1022.25 1022.09 1021.93 1021.73 1021.53 1021.37 1021.21 1021.01 1020.81 1020.57 1020.25 1019.93 1019.61 1019.29 1018.93 1018.53 1018.17 1017.85 1017.49 1017.13 1016.77 1016.37
1018.93 1019.01 1019.13 1019.33 1019.49 1019.65 1019.81 1019.81 1019.93 1019.97 1020.05 1020.21 1020.29 1020.17 1020.17 1020.29 1020.33 1020.53 1020.69 1020.81 1020.65 1021.33 1021.17 1021.37 1021.57 1021.57 1021.85 1022.09 1022.05 1022.01 1022.21 1022.65 1022.93 1023.09 1022.85 1023.01 1023.17 1023.01 1022.73 1022.41 1022.89 1023.13 1023.25 1023.29 1023.25 1023.17 1023.05 1022.97 1022.81 1022.61 1022.49 1022.33 1022.21 1022.01 1021.85 1021.65 1021.45 1021.25 1021.05 1020.85 1020.65 1020.41 1020.09 1019.77 1019.49 1019.17 1018.81 1018.45 1018.09 1017.77 1017.41 1017.01 1016.61 1016.21
1018.81 1018.93 1019.01 1019.17 1019.45 1019.53 1019.69 1019.81 1019.77 1019.85 1020.01 1020.01 1020.09 1020.17 1020.17 1020.09 1020.17 1020.25 1020.37 1020.49 1020.41 1021.13 1021.53 1021.45 1021.41 1021.65 1021.97 1021.93 1021.77 1022.17 1022.33 1022.53 1022.65 1022.53 1022.53 1022.73 1022.81 1022.77 1022.49 1022.01 1022.21 1022.81 1022.85 1022.97 1023.01 1022.93 1022.85 1022.77 1022.61 1022.45 1022.33 1022.21 1022.09 1021.89 1021.69 1021.53 1021.33 1021.09 1020.89 1020.69 1020.49 1020.21 1019.93 1019.65 1019.33 1019.01 1018.69 1018.33 1018.01 1017.65 1017.29 1016.89 1016.45 1016.01
1018.65 1018.85 1018.97 1019.17 1019.37 1019.53 1019.73 1019.89 1019.77 1019.85 1019.93 1019.73 1019.77 1020.01 1019.97 1020.01 1020.09 1020.13 1020.21 1020.29 1020.41 1020.65 1021.21 1021.41 1021.57 1021.69 1021.97 1022.09 1021.73 1022.09 1022.37 1022.57 1022.65 1022.69 1022.53 1022.41 1022.25 1022.13 1022.25 1022.25 1021.85 1022.41 1022.53 1022.73 1022.73 1022.69 1022.61 1022.49 1022.37 1022.25 1022.13 1022.01 1021.85 1021.69 1021.53 1021.37 1021.13 1020.93 1020.69 1020.49 1020.25 1020.01 1019.81 1019.53 1019.25 1018.93 1018.57 1018.21 1017.85 1017.49 1017.13 1016.73 1016.29 1015.81
1018.49 1018.65 1018.93 1019.05 1019.29 1019.45 1019.73 1019.85 1019.93 1019.97 1019.93 1019.93 1019.89 1020.01 1019.93 1020.09 1020.21 1020.25 1020.29 1020.29 1020.33 1020.45 1021.17 1021.81 1021.37 1021.45 1021.81 1022.13 1021.97 1022.09 1022.41 1022.57 1022.69 1022.57 1022.33 1022.33 1022.33 1022.13 1021.89 1021.65 1021.53 1022.01 1022.29 1022.45 1022.45 1022.41 1022.29 1022.17 1022.09 1021.97 1021.85 1021.77 1021.65 1021.49 1021.33 1021.13 1020.93 1020.73 1020.49 1020.29 1020.05 1019.89 1019.65 1019.37 1019.09 1018.77 1018.41 1018.09 1017.77 1017.41 1016.97 1016.57 1016.13 1015.61
1018.25 1018.45 1018.69 1018.93 1019.17 1019.41 1019.65 1019.89 1019.93 1019.81 1020.05 1019.81 1019.85 1019.89 1019.85 1019.89 1020.09 1020.29 1020.37 1020.29 1020.49 1021.01 1021.37 1021.25 1021.29 1021.21 1021.69 1021.85 1022.01 1022.17 1022.29 1022.41 1022.41 1022.29 1022.37 1022.09 1021.97 1021.93 1021.81 1021.65 1021.53 1021.77 1022.05 1022.13 1022.13 1022.05 1021.93 1021.77 1021.73 1021.69 1021.61 1021.53 1021.41 1021.25 1021.09 1020.89 1020.69 1020.49 1020.29 1020.09 1019.93 1019.69 1019.45 1019.17 1018.89 1018.57 1018.25 1017.93 1017.61 1017.25 1016.81 1016.37 1015.93 1015.41
1018.09 1018.33 1018.53 1018.81 1019.05 1019.25 1019.45 1019.69 1019.73 1019.81 1019.93 1019.85 1019.85 1019.93 1019.85 1019.81 1020.25 1020.49 1020.65 1020.89 1021.09 1021.29 1021.09 1021.01 1021.41 1021.57 1021.81 1022.09 1022.29 1022.33 1022.53 1022.41 1022.13 1021.81 1021.69 1021.61 1021.85 1021.97 1021.81 1021.53 1021.33 1021.37 1021.37 1021.49 1021.53 1021.53 1021.29 1021.33 1021.49 1021.37 1021.29 1021.17 1021.09 1020.93 1020.81 1020.65 1020.45 1020.25 1020.09 1019.93 1019.73 1019.53 1019.29 1019.01 1018.69 1018.37 1018.01 1017.69 1017.37 1016.97 1016.57 1016.13 1015.69 1015.17
1018.01 1018.21 1018.37 1018.61 1018.81 1019.01 1019.17 1019.45 1019.65 1019.81 1019.93 1019.97 1019.97 1020.05 1020.21 1020.17 1020.53 1020.89 1021.01 1021.05 1021.13 1021.09 1021.01 1021.09 1021.25 1021.53 1021.85 1021.97 1022.13 1022.09 1022.37 1022.53 1022.53 1022.37 1021.93 1021.57 1021.25 1021.37 1021.49 1021.49 1021.21 1021.05 1021.13 1021.21 1021.37 1021.25 1021.13 1021.09 1020.97 1020.85 1020.81 1020.69 1020.65 1020.61 1020.45 1020.29 1020.17 1020.05 1019.93 1019.77 1019.57 1019.37 1019.09 1018.77 1018.45 1018.09 1017.73 1017.37 1017.01 1016.69 1016.33 1015.93 1015.49 1015.01
1017.93 1018.13 1018.29 1018.49 1018.69 1018.85 1019.01 1019.25 1019.49 1019.69 1019.85 1019.89 1020.05 1020.13 1020.33 1020.57 1020.85 1020.93 1020.97 1021.05 1020.93 1021.01 1021.13 1021.09 1021.25 1021.33 1021.65 1022.05 1022.01 1022.05 1022.45 1022.41 1022.21 1022.09 1022.09 1022.01 1021.77 1021.53 1021.29 1021.25 1021.37 1021.13 1021.21 1020.97 1020.65 1020.77 1020.81 1020.61 1020.49 1020.41 1020.13 1020.05 1020.33 1020.21 1020.01 1019.81 1019.89 1019.85 1019.73 1019.57 1019.37 1019.09 1018.81 1018.49 1018.13 1017.77 1017.41 1017.01 1016.69 1016.41 1016.09 1015.73 1015.29 1014.89
1017.89 1018.05 1018.21 1018.45 1018.61 1018.73 1018.97 1019.21 1019.45 1019.57 1019.69 1019.77 1019.97 1020.21 1020.45 1020.73 1020.89 1021.05 1020.93 1020.81 1020.81 1020.77 1020.93 1021.09 1021.17 1021.37 1021.53 1021.53 1021.73 1022.01 1022.09 1022.01 1021.61 1021.73 1022.05 1022.05 1021.77 1021.45 1021.17 1020.85 1021.05 1021.25 1021.25 1020.97 1020.81 1020.41 1020.33 1020.29 1020.05 1019.73 1019.29 1019.29 1019.77 1019.53 1019.57 1019.41 1019.53 1019.57 1019.49 1019.29 1019.05 1018.77 1018.53 1018.21 1017.89 1017.49 1017.13 1016.77 1016.45 1016.13 1015.85 1015.49 1015.09 1014.69
1017.77 1017.85 1018.05 1018.33 1018.61 1018.89 1019.17 1019.45 1019.69 1019.89 1020.05 1020.21 1020.09 1020.13 1020.57 1020.89 1021.09 1021.09 1020.89 1020.77 1020.65 1020.65 1020.81 1020.89 1021.05 1021.25 1021.29 1021.29 1021.53 1021.69 1021.73 1021.65 1021.81 1022.01 1022.01 1021.89 1021.49 1021.37 1021.25 1020.97 1020.85 1021.17 1021.21 1021.17 1020.89 1020.41 1020.05 1020.17 1019.85 1019.49 1019.25 1019.05 1019.13 1019.01 1018.93 1019.17 1019.49 1019.37 1019.25 1019.01 1018.77 1018.53 1018.29 1017.97 1017.61 1017.25 1016.89 1016.53 1016.21 1015.89 1015.61 1015.25 1014.89 1014.45
1017.61 1017.77 1017.93 1018.25 1018.81 1019.09 1019.41 1019.69 1020.05 1020.21 1020.45 1020.73 1020.77 1020.85 1021.05 1021.17 1020.97 1020.81 1020.85 1020.81 1020.73 1020.69 1020.69 1020.69 1020.97 1021.17 1021.25 1021.33 1021.37 1021.53 1021.49 1021.61 1021.85 1021.81 1021.77 1021.65 1021.49 1021.37 1021.37 1021.21 1020.77 1020.85 1021.29 1021.13 1020.85 1020.37 1020.01 1020.05 1019.73 1019.45 1019.13 1019.01 1018.93 1018.89 1018.85 1019.29 1019.25 1019.17 1018.97 1018.73 1018.45 1018.25 1018.01 1017.73 1017.41 1017.01 1016.65 1016.29 1015.97 1015.69 1015.33 1014.97 1014.61 1014.21
1017.37 1017.61 1017.85 1018.09 1018.45 1018.73 1018.93 1019.17 1019.89 1020.49 1020.81 1020.93 1021.09 1021.21 1021.37 1021.49 1021.49 1021.61 1021.41 1020.97 1020.77 1020.85 1020.77 1020.73 1020.89 1021.17 1021.33 1021.21 1021.25 1021.29 1021.45 1021.53 1021.61 1021.69 1021.65 1021.57 1021.61 1021.57 1021.41 1021.21 1021.13 1020.77 1021.01 1021.09 1020.81 1020.41 1019.77 1019.73 1019.61 1019.37 1019.05 1018.93 1018.85 1018.85 1018.85 1019.01 1019.01 1018.89 1018.73 1018.45 1018.21 1017.93 1017.73 1017.45 1017.13 1016.77 1016.41 1016.09 1015.77 1015.45 1015.09 1014.69 1014.29 1013.93
1017.09 1017.37 1017.69 1017.93 1018.17 1018.45 1018.93 1019.09 1019.33 1019.85 1020.65 1021.21 1021.33 1021.37 1021.53 1021.61 1021.61 1021.61 1021.69 1021.73 1021.57 1021.05 1020.77 1020.93 1021.09 1021.17 1021.17 1021.09 1021.01 1021.17 1021.45 1021.61 1021.73 1021.57 1021.41 1021.25 1021.33 1021.37 1021.37 1021.13 1021.05 1020.85 1020.89 1020.93 1020.61 1020.37 1019.77 1019.41 1019.29 1019.21 1018.89 1018.77 1018.77 1018.57 1018.57 1018.73 1018.61 1018.57 1018.41 1018.17 1017.89 1017.65 1017.45 1017.17 1016.89 1016.57 1016.21 1015.89 1015.53 1015.17 1014.81 1014.45 1014.05 1013.53
1016.89 1017.13 1017.37 1017.65 1018.01 1018.33 1018.77 1018.85 1019.09 1019.41 1019.77 1020.37 1020.81 1020.93 1020.85 1020.81 1021.33 1021.69 1021.73 1021.77 1021.85 1021.81 1021.33 1021.09 1021.29 1021.13 1021.09 1021.09 1020.97 1021.21 1021.53 1021.73 1021.65 1021.53 1021.45 1021.41 1021.45 1021.45 1021.45 1021.41 1021.25 1020.89 1020.69 1020.77 1020.77 1020.33 1019.49 1019.17 1019.17 1019.01 1018.77 1018.69 1018.57 1018.29 1018.25 1018.33 1018.33 1018.21 1018.05 1017.85 1017.57 1017.33 1017.13 1016.89 1016.65 1016.33 1015.97 1015.65 1015.29 1014.93 1014.57 1014.25 1013.81 1013.21
1016.69 1016.93 1017.13 1017.37 1017.73 1018.13 1018.49 1018.61 1018.89 1019.09 1019.33 1019.65 1019.93 1020.09 1020.21 1020.29 1020.45 1020.81 1021.13 1021.29 1021.29 1021.37 1021.37 1021.29 1021.17 1021.09 1021.09 1021.13 1021.17 1021.25 1021.45 1021.61 1021.61 1021.69 1021.73 1021.81 1021.81 1021.73 1021.53 1021.09 1020.69 1020.33 1020.09 1020.53 1020.57 1020.25 1019.69 1019.29 1019.25 1018.89 1018.65 1018.49 1018.41 1018.13 1017.93 1018.05 1017.97 1017.85 1017.65 1017.49 1017.29 1017.05 1016.85 1016.65 1016.37 1016.01 1015.69 1015.37 1015.05 1014.73 1014.37 1014.01 1013.57 1012.97
1016.53 1016.73 1017.05 1017.25 1017.57 1017.93 1018.17 1018.61 1019.01 1019.01 1019.05 1019.33 1019.53 1019.77 1019.89 1020.05 1020.17 1020.37 1020.69 1020.97 1021.13 1021.13 1021.25 1021.33 1021.33 1021.21 1021.53 1021.69 1021.69 1021.81 1021.69 1021.53 1021.61 1021.77 1021.81 1021.73 1021.65 1021.45 1021.05 1020.61 1020.13 1020.25 1019.89 1020.13 1020.41 1020.33 1019.89 1019.45 1019.21 1018.81 1018.45 1018.33 1018.29 1018.29 1018.01 1017.73 1017.69 1017.53 1017.29 1017.17 1017.01 1016.77 1016.53 1016.33 1016.09 1015.73 1015.41 1015.09 1014.85 1014.53 1014.17 1013.81 1013.41 1012.85
1016.41 1016.65 1016.89 1017.09 1017.41 1017.77 1017.93 1018.65 1019.01 1019.21 1019.21 1019.17 1019.41 1019.57 1019.77 1019.93 1020.09 1020.17 1020.69 1021.21 1021.41 1021.53 1021.61 1021.73 1021.81 1021.85 1021.93 1022.01 1022.13 1022.25 1022.41 1022.33 1022.25 1022.05 1021.85 1021.41 1021.05 1020.85 1020.61 1020.21 1020.13 1019.73 1019.85 1019.77 1019.97 1020.29 1020.09 1019.37 1019.17 1018.89 1018.45 1018.33 1018.21 1017.93 1017.73 1017.49 1017.33 1017.13 1016.93 1016.85 1016.69 1016.53 1016.29 1016.05 1015.81 1015.45 1015.09 1014.77 1014.53 1014.29 1014.01 1013.65 1013.25 1012.65
1016.29 1016.57 1016.93 1017.05 1017.21 1017.49 1017.85 1018.77 1019.05 1019.29 1019.33 1019.13 1019.25 1019.45 1019.65 1019.85 1020.01 1020.05 1020.25 1020.73 1021.17 1021.57 1021.73 1021.81 1021.89 1021.89 1021.89 1022.01 1022.21 1022.33 1022.45 1022.57 1022.53 1022.09 1021.65 1021.09 1020.85 1020.69 1020.49 1020.33 1020.05 1019.85 1019.65 1019.01 1019.89 1020.29 1019.77 1019.45 1019.13 1018.93 1018.45 1018.09 1017.65 1017.61 1017.49 1017.21 1016.57 1016.53 1016.45 1016.33 1016.21 1016.13 1015.97 1015.69 1015.45 1015.17 1014.85 1014.49 1014.21 1014.01 1013.85 1013.53 1013.13 1012.29
1016.05 1016.45 1017.01 1017.25 1017.21 1017.29 1017.89 1018.77 1019.09 1019.33 1019.29 1019.01 1019.13 1019.29 1019.49 1019.61 1019.73 1019.73 1020.01 1020.41 1020.69 1021.01 1021.21 1021.21 1021.41 1021.45 1021.61 1021.77 1021.69 1021.65 1022.09 1022.29 1022.45 1022.13 1021.73 1021.29 1021.01 1020.77 1020.45 1020.29 1020.17 1019.93 1019.09 1019.53 1020.09 1020.17 1019.65 1019.61 1019.05 1018.85 1018.49 1018.17 1017.69 1017.37 1017.13 1016.77 1016.65 1016.33 1016.05 1015.97 1015.81 1015.73 1015.61 1015.33 1015.05 1014.85 1014.61 1014.33 1013.97 1013.73 1013.61 1013.33 1013.05 1012.33
1015.93 1016.21 1016.73 1017.29 1017.77 1017.89 1018.21 1018.65 1019.05 1019.21 1019.21 1018.97 1018.93 1019.21 1019.33 1019.41 1019.49 1019.53 1019.93 1020.21 1020.41 1020.57 1020.65 1020.45 1020.41 1020.45 1020.57 1020.81 1020.97 1021.01 1021.41 1021.93 1022.01 1021.85 1021.57 1021.33 1021.05 1020.81 1020.57 1020.25 1020.17 1019.89 1019.57 1019.41 1020.05 1020.09 1019.73 1019.49 1019.13 1018.89 1018.65 1018.33 1017.89 1017.49 1016.97 1016.69 1016.33 1015.85 1015.89 1015.85 1015.61 1015.41 1015.17 1014.85 1014.61 1014.45 1014.37 1014.13 1013.81 1013.53 1013.37 1013.09 1012.97 1012.49
1015.65 1015.97 1016.25 1016.61 1017.61 1018.01 1018.29 1018.57 1018.89 1019.09 1019.25 1019.21 1019.05 1019.09 1019.17 1019.21 1019.25 1019.49 1019.77 1020.33 1020.73 1020.57 1020.49 1020.41 1020.37 1020.37 1020.33 1020.37 1020.37 1020.41 1020.49 1020.73 1020.97 1021.13 1021.13 1021.01 1020.85 1020.73 1020.49 1020.25 1020.01 1019.77 1019.49 1019.61 1020.01 1019.93 1019.81 1019.57 1019.25 1018.97 1018.65 1018.25 1017.81 1017.65 1017.05 1016.81 1016.29 1015.97 1015.97 1015.89 1015.69 1015.37 1015.09 1014.77 1014.57 1014.21 1014.09 1013.93 1013.61 1013.37 1013.13 1012.89 1012.89 1012.69
1015.29 1015.57 1015.85 1016.09 1017.13 1017.85 1018.25 1018.57 1018.89 1019.09 1019.29 1019.49 1019.37 1019.09 1019.37 1019.81 1019.93 1019.85 1019.69 1019.89 1020.21 1020.29 1020.29 1020.05 1019.89 1019.81 1019.77 1019.73 1019.73 1019.81 1019.85 1019.89 1020.01 1020.21 1020.33 1020.45 1020.49 1020.41 1020.33 1020.21 1020.09 1019.89 1019.65 1019.69 1019.97 1019.89 1019.89 1019.57 1019.29 1019.13 1018.77 1018.49 1018.21 1018.01 1017.41 1016.89 1016.37 1016.01 1015.93 1015.69 1015.69 1015.49 1015.13 1014.85 1014.53 1014.25 1013.97 1013.77 1013.45 1013.33 1013.09 1012.85 1012.81 1012.49
1014.97 1015.17 1015.53 1015.97 1016.97 1017.77 1018.25 1018.61 1018.81 1019.09 1019.37 1019.81 1019.49 1019.45 1019.81 1020.13 1020.33 1020.25 1019.77 1019.65 1019.81 1019.93 1019.85 1019.65 1019.49 1019.45 1019.41 1019.41 1019.37 1019.37 1019.45 1019.45 1019.53 1019.69 1019.85 1019.93 1020.01 1020.09 1020.05 1020.01 1019.97 1019.85 1019.65 1019.57 1019.49 1019.49 1019.53 1019.45 1019.25 1019.13 1018.89 1018.81 1018.61 1018.01 1017.49 1016.97 1016.61 1016.41 1015.81 1015.41 1015.45 1015.21 1014.97 1014.81 1014.65 1014.37 1014.09 1013.77 1013.53 1013.37 1013.01 1012.73 1012.57 1012.41
1014.73 1015.05 1015.33 1016.01 1017.09 1017.73 1018.21 1018.57 1018.81 1019.05 1019.53 1019.29 1019.29 1019.65 1020.01 1020.29 1020.45 1020.09 1019.69 1019.77 1019.93 1019.97 1019.77 1019.61 1019.49 1019.37 1019.25 1019.17 1019.13 1019.13 1019.17 1019.21 1019.21 1019.33 1019.53 1019.61 1019.73 1019.77 1019.77 1019.77 1019.77 1019.69 1019.61 1019.45 1019.29 1019.21 1019.17 1019.13 1019.05 1018.97 1018.93 1018.73 1018.45 1018.01 1017.65 1017.25 1016.85 1016.33 1016.05 1015.89 1015.65 1015.37 1015.13 1014.85 1014.65 1014.49 1014.17 1013.89 1013.61 1013.29 1012.97 1012.73 1012.53 1012.25
1014.65 1015.13 1015.65 1016.45 1017.13 1017.65 1018.09 1018.53 1019.01 1019.49 1019.49 1019.29 1019.33 1019.69 1020.13 1020.33 1019.93 1019.77 1019.53 1019.45 1019.53 1019.53 1019.45 1019.29 1019.17 1019.05 1019.01 1018.89 1018.89 1018.93 1019.09 1019.33 1019.45 1019.53 1019.53 1019.61 1019.61 1019.53 1019.53 1019.49 1019.45 1019.41 1019.33 1019.33 1019.33 1019.13 1018.97 1018.89 1018.89 1018.93 1018.89 1018.65 1018.41 1018.01 1017.81 1017.25 1016.97 1016.49 1016.17 1015.85 1015.45 1015.37 1015.09 1014.81 1014.61 1014.49 1014.33 1014.09 1013.81 1013.49 1013.21 1012.97 1012.73 1012.45
1015.29 1015.77 1016.25 1016.77 1017.37 1017.93 1018.53 1018.85 1018.77 1018.61 1018.89 1019.25 1019.57 1019.93 1020.17 1019.85 1019.33 1019.17 1019.21 1019.25 1019.13 1019.01 1018.93 1018.93 1018.85 1018.65 1018.53 1018.57 1018.57 1018.85 1019.29 1019.41 1019.29 1019.25 1019.21 1019.17 1019.05 1019.13 1019.13 1019.05 1018.73 1018.41 1018.45 1018.65 1018.89 1018.81 1018.65 1018.53 1018.57 1018.81 1018.81 1018.61 1018.33 1018.01 1017.61 1017.29 1016.81 1016.57 1016.21 1015.85 1015.69 1015.41 1015.13 1014.89 1014.61 1014.45 1014.45 1014.29 1013.93 1013.57 1013.21 1013.05 1012.81 1012.69
1015.65 1016.33 1016.53 1016.93 1017.33 1017.45 1018.01 1018.01 1018.01 1018.13 1018.37 1019.05 1019.61 1019.65 1019.69 1019.29 1018.93 1018.77 1018.73 1018.61 1018.57 1018.57 1018.57 1018.45 1018.41 1018.37 1018.33 1018.29 1018.49 1018.85 1019.05 1019.05 1018.93 1018.81 1018.81 1018.77 1018.61 1018.57 1018.45 1018.49 1018.41 1018.33 1018.05 1017.81 1017.93 1018.21 1018.37 1018.41 1018.49 1018.57 1018.81 1018.57 1018.29 1017.97 1017.57 1017.33 1016.97 1016.49 1016.01 1015.85 1015.69 1015.61 1015.21 1014.97 1014.69 1014.49 1014.61 1014.45 1014.01 1013.57 1013.37 1013.13 1012.89 1012.81
1015.29 1016.13 1016.81 1017.13 1017.13 1017.45 1017.85 1017.81 1017.69 1017.77 1017.85 1018.05 1018.41 1018.49 1018.57 1018.61 1018.49 1018.49 1018.53 1018.65 1018.45 1018.29 1018.17 1018.09 1018.05 1018.05 1018.05 1018.25 1018.33 1018.37 1018.41 1018.33 1018.33 1018.37 1018.45 1018.49 1018.41 1018.33 1018.29 1018.33 1018.29 1018.09 1017.65 1017.45 1017.41 1017.53 1018.05 1018.33 1018.45 1018.41 1018.37 1018.29 1018.13 1017.77 1017.49 1017.25 1016.97 1016.41 1016.01 1015.73 1015.61 1015.37 1015.17 1015.09 1014.85 1014.61 1014.69 1014.53 1014.05 1013.61 1013.41 1013.33 1013.13 1012.97
1015.33 1015.81 1016.05 1015.97 1016.21 1016.41 1016.69 1016.81 1016.73 1017.01 1017.37 1017.53 1017.61 1017.77 1017.77 1017.73 1017.81 1017.97 1018.13 1018.29 1018.29 1018.17 1018.21 1018.17 1018.13 1017.97 1017.97 1017.97 1018.01 1018.09 1018.01 1018.01 1018.05 1018.05 1018.09 1018.21 1018.29 1018.21 1018.13 1018.09 1017.93 1017.77 1017.49 1017.25 1017.17 1017.09 1017.25 1017.53 1018.01 1018.21 1018.13 1017.85 1017.73 1017.65 1017.65 1017.41 1016.85 1016.61 1016.21 1015.77 1015.61 1015.41 1015.21 1015.17 1015.05 1014.97 1014.73 1014.33 1014.13 1013.81 1013.53 1013.49 1013.29 1013.29
1014.89 1015.01 1015.13 1015.29 1015.65 1015.73 1015.81 1016.01 1016.29 1016.49 1016.73 1016.85 1016.93 1017.05 1017.41 1017.33 1017.09 1017.13 1017.37 1017.53 1017.53 1017.65 1017.77 1017.73 1017.69 1017.77 1017.73 1017.57 1017.53 1017.57 1017.81 1017.81 1017.85 1017.81 1018.05 1018.09 1018.05 1018.05 1017.97 1017.89 1017.77 1017.53 1017.33 1017.21 1017.13 1017.13 1017.21 1017.25 1017.17 1017.25 1017.37 1017.37 1017.37 1017.37 1017.17 1017.05 1016.85 1016.61 1016.25 1015.97 1015.69 1015.49 1015.37 1015.33 1015.21 1015.13 1014.81 1014.45 1014.25 1013.97 1013.61 1013.49 1013.33 1013.25
1014.77 1014.81 1014.89 1015.13 1015.09 1015.17 1015.17 1015.49 1015.85 1016.13 1016.41 1016.65 1016.57 1016.45 1016.49 1016.81 1016.81 1016.93 1016.81 1016.77 1016.97 1017.25 1017.33 1017.53 1017.57 1017.41 1017.65 1017.73 1017.61 1017.41 1017.53 1017.69 1017.69 1017.65 1017.73 1017.97 1017.89 1017.73 1017.69 1017.57 1017.41 1017.37 1017.13 1017.01 1016.97 1016.93 1017.09 1016.97 1017.01 1016.97 1016.85 1016.65 1016.41 1016.29 1016.61 1016.77 1016.81 1016.61 1016.33 1016.09 1015.85 1015.73 1015.57 1015.41 1015.41 1015.13 1014.85 1014.45 1014.21 1014.13 1014.05 1013.69 1013.41 1013.05
1014.65 1014.53 1014.49 1014.61 1014.53 1014.57 1014.85 1015.09 1015.45 1015.81 1015.85 1016.09 1016.13 1016.13 1016.17 1016.05 1016.21 1016.53 1016.57 1016.65 1016.65 1016.69 1017.01 1017.37 1017.65 1017.61 1017.77 1017.81 1017.69 1017.57 1017.53 1017.77 1017.69 1017.57 1017.41 1017.33 1017.45 1017.49 1017.37 1017.33 1017.33 1017.25 1017.17 1016.97 1016.85 1016.85 1016.85 1016.85 1016.97 1016.97 1016.97 1016.85 1016.85 1016.77 1016.33 1017.05 1016.81 1016.73 1016.45 1016.29 1016.05 1015.97 1015.73 1015.57 1015.49 1015.17 1014.85 1014.69 1014.45 1014.29 1014.33 1014.05 1013.53 1013.37
1014.05 1014.01 1013.97 1014.05 1014.13 1014.25 1014.53 1014.81 1015.09 1015.33 1015.37 1015.37 1015.45 1015.37 1015.49 1015.73 1015.69 1015.73 1016.05 1016.49 1016.49 1016.61 1016.69 1017.17 1017.53 1017.61 1017.73 1017.93 1017.93 1017.85 1017.77 1017.77 1017.65 1017.53 1017.49 1017.33 1017.29 1017.33 1017.37 1017.37 1017.45 1017.45 1017.29 1017.17 1017.05 1016.69 1016.69 1016.81 1017.05 1017.13 1017.17 1017.37 1017.21 1017.01 1016.49 1016.69 1016.89 1016.93 1016.53 1016.29 1016.25 1016.05 1016.09 1015.85 1015.57 1015.21 1014.93 1014.85 1014.61 1014.45 1014.37 1014.09 1013.69 1013.53
1013.73 1013.61 1013.69 1013.81 1013.93 1014.05 1014.29 1014.53 1014.77 1015.01 1015.01 1014.89 1014.89 1014.93 1014.85 1014.65 1014.93 1015.29 1015.69 1016.01 1016.49 1016.85 1017.09 1017.33 1017.29 1017.53 1017.61 1017.77 1017.93 1017.77 1017.45 1017.29 1017.25 1017.29 1017.37 1017.41 1017.37 1017.29 1017.17 1017.13 1017.05 1016.97 1016.93 1016.77 1016.57 1016.45 1016.49 1016.77 1017.05 1016.89 1017.05 1017.45 1017.49 1017.09 1016.81 1016.17 1016.01 1016.33 1016.85 1016.57 1016.53 1016.45 1016.25 1016.01 1015.77 1015.49 1015.29 1014.97 1014.89 1014.73 1014.33 1014.09 1013.97 1013.77
1013.41 1013.37 1013.49 1013.57 1013.81 1014.01 1014.21 1014.33 1014.37 1014.45 1014.65 1014.49 1014.53 1014.57 1014.89 1015.17 1015.29 1015.33 1015.57 1015.85 1016.45 1016.73 1016.85 1016.93 1016.97 1017.21 1017.41 1017.41 1017.33 1017.21 1017.09 1017.05 1017.17 1017.25 1017.37 1017.29 1017.13 1017.01 1016.97 1016.97 1016.93 1016.77 1016.65 1016.33 1016.17 1016.21 1016.29 1016.41 1016.41 1016.53 1016.73 1017.05 1017.13 1016.97 1016.97 1016.69 1016.53 1016.01 1016.53 1016.81 1016.69 1016.65 1016.37 1016.21 1016.05 1015.73 1015.49 1015.33 1015.25 1014.85 1014.53 1014.37 1014.13 1014.13
1012.97 1013.09 1013.33 1013.53 1013.69 1013.81 1013.85 1013.85 1013.89 1014.05 1014.21 1014.33 1014.53 1014.65 1014.85 1015.05 1015.21 1015.45 1015.81 1016.25 1016.49 1016.49 1016.49 1016.61 1016.81 1016.97 1017.09 1016.97 1016.81 1016.77 1016.77 1016.85 1016.97 1017.01 1017.09 1017.05 1017.01 1016.97 1016.85 1016.81 1016.73 1016.61 1016.41 1016.25 1016.37 1016.33 1016.37 1016.25 1016.29 1016.57 1016.93 1017.09 1017.13 1017.09 1016.97 1016.81 1016.41 1016.01 1016.21 1016.93 1017.13 1017.09 1016.89 1016.61 1016.37 1016.17 1015.85 1015.81 1015.53 1015.17 1014.89 1014.61 1014.41 1013.93
1012.81 1013.13 1013.25 1013.41 1013.41 1013.45 1013.53 1013.41 1013.45 1013.65 1014.01 1014.25 1014.41 1014.57 1014.81 1014.93 1015.29 1015.49 1015.61 1015.81 1016.05 1016.25 1016.37 1016.45 1016.65 1016.85 1016.81 1016.73 1016.61 1016.65 1016.65 1016.61 1016.73 1016.85 1016.89 1016.93 1016.93 1017.05 1017.09 1017.29 1017.13 1016.73 1016.45 1016.21 1016.21 1016.29 1016.33 1016.37 1017.05 1017.21 1017.29 1017.13 1017.01 1016.85 1016.61 1016.21 1015.85 1015.53 1015.53 1016.81 1017.17 1017.29 1017.33 1017.41 1016.97 1016.53 1016.41 1016.21 1015.81 1015.65 1015.45 1015.21 1014.97 1014.25
1012.53 1012.77 1012.85 1012.97 1013.01 1012.89 1013.01 1013.37 1013.65 1013.85 1014.01 1014.09 1014.25 1014.45 1014.81 1014.97 1015.01 1015.37 1015.65 1015.97 1016.09 1016.17 1016.25 1016.33 1016.41 1016.45 1016.49 1016.49 1016.49 1016.61 1016.69 1016.65 1016.61 1016.65 1016.69 1016.73 1016.69 1016.69 1017.09 1017.29 1017.01 1016.65 1016.45 1016.21 1016.17 1016.13 1015.93 1016.09 1016.69 1016.77 1016.73 1016.69 1016.65 1016.61 1016.21 1015.93 1015.65 1015.49 1015.33 1015.97 1017.01 1017.33 1017.37 1017.41 1017.37 1017.09 1016.73 1016.45 1016.17 1016.01 1016.05 1015.61 1015.33 1014.81
1012.29 1012.25 1012.37 1012.53 1012.77 1012.93 1013.17 1013.41 1013.57 1013.77 1013.89 1013.97 1014.09 1014.25 1014.45 1014.81 1015.01 1015.49 1015.81 1015.89 1016.01 1016.17 1016.21 1016.17 1016.13 1016.13 1016.13 1016.17 1016.29 1016.33 1016.33 1016.45 1016.53 1016.53 1016.45 1016.53 1016.65 1016.69 1016.57 1016.49 1016.61 1016.49 1016.29 1016.01 1015.89 1015.97 1015.97 1016.01 1016.01 1016.05 1016.25 1016.57 1016.33 1016.21 1016.05 1015.85 1015.81 1015.65 1015.53 1015.25 1015.93 1016.65 1017.13 1017.41 1017.33 1017.29 1017.21 1017.13 1017.01 1016.81 1016.65 1016.69 1016.33 1015.93
1012.01 1012.09 1012.25 1012.49 1012.77 1012.97 1013.05 1013.25 1013.49 1013.61 1013.73 1013.81 1013.97 1014.21 1014.49 1014.81 1015.13 1015.33 1015.49 1015.57 1015.65 1015.73 1015.81 1015.81 1015.69 1015.73 1015.85 1015.89 1015.89 1015.89 1015.93 1015.93 1016.09 1016.33 1016.45 1016.49 1016.49 1016.45 1016.41 1016.21 1016.17 1016.33 1016.17 1015.97 1015.85 1015.77 1015.89 1016.05 1016.05 1016.09 1016.13 1016.29 1016.25 1016.05 1015.93 1015.93 1015.65 1015.49 1015.45 1015.45 1015.57 1015.77 1016.13 1016.69 1017.05 1017.37 1017.45 1017.41 1017.37 1017.33 1017.13 1017.13 1017.33 1017.37
1011.93 1012.13 1012.25 1012.45 1012.61 1012.81 1013.01 1013.21 1013.37 1013.49 1013.65 1013.89 1014.21 1014.49 1014.77 1014.93 1014.93 1015.01 1015.17 1015.25 1015.29 1015.37 1015.45 1015.49 1015.49 1015.49 1015.61 1015.69 1015.65 1015.65 1015.65 1015.81 1015.93 1015.97 1016.05 1016.13 1016.13 1016.13 1016.21 1016.21 1015.93 1015.77 1015.93 1016.01 1015.93 1015.93 1015.85 1015.81 1015.81 1015.89 1015.93 1015.93 1016.09 1016.13 1016.05 1015.97 1015.85 1015.89 1015.77 1015.61 1015.53 1015.49 1015.29 1015.45 1015.73 1015.97 1016.29 1016.81 1017.29 1017.37 1016.97 1016.97 1017.29 1017.41
Wind_Speed
7 7 8 8 8 8 8 7 6 5 5 5 5 6 7 7 7 6 7 8 6 8 8 6 7 6 6 5 5 5 6 7 5 4 5 3 4 8 3 3 5 6 6 5 6 7 8 9 8 9 9 10 10 11 11 11 12 12 14 16 17 17 17 17 18 19 20 21 22 21 22 23 24 24
6 7 7 7 7 5 5 6 5 5 5 6 6 6 6 7 8 7 6 5 7 6 8 6 5 7 6 5 5 4 5 11 3 4 4 4 3 7 2 5 6 6 6 5 6 7 8 8 9 9 9 10 11 11 11 11 12 13 14 15 16 16 17 17 18 19 20 21 22 22 22 23 24 25
6 6 6 6 6 4 4 4 4 5 4 5 6 6 6 7 7 7 6 7 4 5 6 7 5 6 7 6 5 4 5 8 4 4 3 6 7 1 6 9 8 7 5 5 5 7 7 7 8 9 9 10 11 11 12 12 12 13 14 14 14 16 16 17 18 20 21 22 22 23 23 24 25 25
6 6 7 6 6 4 4 5 5 4 4 4 5 5 5 6 6 5 7 7 2 4 4 5 5 6 6 6 6 6 4 8 6 5 5 1 3 6 7 13 10 8 5 4 5 7 7 7 8 8 9 10 11 11 11 11 11 12 12 12 13 13 15 17 18 20 21 22 22 23 23 24 24 25
6 6 7 7 6 5 5 4 4 4 5 5 5 5 5 5 5 6 6 7 4 4 2 4 5 6 6 6 7 6 4 3 4 6 4 2 4 5 6 5 13 8 6 4 5 6 7 7 7 8 9 10 10 10 10 10 10 11 12 13 13 13 15 16 17 19 20 21 22 22 23 23 23 24
6 6 7 7 7 6 6 4 5 5 5 5 5 5 5 5 5 5 6 6 6 5 5 5 5 5 6 6 5 5 3 3 3 5 3 4 5 5 5 7 7 10 7 3 4 7 7 7 7 8 8 9 9 10 10 11 10 10 11 12 13 13 15 16 18 19 20 21 21 21 22 22 23 23
7 7 7 7 7 5 5 5 4 3 4 4 4 4 4 4 4 4 6 5 6 6 5 5 6 5 6 6 4 4 3 3 2 4 5 5 5 4 5 5 3 10 4 3 6 8 8 8 8 8 8 9 9 10 11 11 10 11 11 12 13 13 15 15 16 17 19 21 21 21 21 22 23 23
8 8 8 7 7 6 6 6 5 5 4 4 4 5 4 4 3 3 5 6 5 4 3 6 7 6 5 5 4 2 1 2 4 5 5 5 6 6 6 5 5 9 4 4 8 8 8 9 9 8 8 9 10 10 11 11 11 10 11 11 12 13 14 15 16 16 17 18 19 20 20 21 22 23
8 8 7 7 7 7 7 6 6 5 6 5 5 4 4 4 4 3 4 4 3 1 5 5 5 4 4 3 3 2 3 4 6 7 6 5 4 5 5 6 3 2 9 9 9 9 10 11 9 8 9 9 10 11 11 11 10 11 11 11 11 13 14 15 16 16 16 16 16 19 20 20 22 23
8 8 8 8 8 8 8 7 6 6 7 5 5 4 3 3 3 2 2 1 2 5 6 4 5 4 4 4 4 3 3 4 5 5 5 5 5 5 4 5 3 4 2 2 4 8 11 10 10 9 10 11 11 12 11 10 10 10 10 10 11 13 14 15 15 16 16 16 15 16 17 19 21 23
8 8 8 8 9 9 8 7 7 7 6 4 4 3 2 1 3 3 2 3 4 5 4 3 4 4 4 3 3 4 3 3 4 5 5 5 2 4 4 5 3 3 2 5 10 7 6 8 9 8 12 13 13 11 11 11 10 9 8 10 11 13 14 15 15 16 16 16 16 16 16 18 19 22
9 8 8 8 8 8 8 8 7 7 6 5 4 3 2 2 2 2 2 4 4 4 4 4 4 3 4 4 3 2 3 4 5 5 3 5 5 5 4 4 3 3 4 6 3 10 11 12 14 17 17 15 11 12 12 12 10 6 8 10 12 12 13 14 15 16 16 16 16 16 16 17 18 19
9 9 8 8 8 8 7 7 5 4 2 4 5 4 3 3 2 1 3 3 4 4 4 4 3 3 4 4 4 4 4 4 3 2 3 5 5 5 5 3 1 3 5 5 6 6 4 6 6 7 7 1 11 12 15 3 3 8 10 11 12 12 13 14 15 15 16 16 17 16 16 17 18 19
9 9 8 7 8 8 7 7 6 7 4 8 6 4 4 3 2 3 4 4 4 3 4 4 4 4 4 4 3 3 4 2 2 4 4 5 5 5 5 5 2 1 4 5 6 6 3 5 6 6 6 5 5 6 3 7 6 8 11 12 12 12 13 14 14 15 15 16 16 17 16 16 18 19
10 9 9 8 8 8 7 7 7 7 8 10 10 11 7 5 3 2 4 4 3 4 4 3 4 4 4 3 3 4 4 3 4 4 4 5 5 5 5 5 3 2 3 6 7 6 4 5 6 6 6 6 7 6 5 4 8 9 11 12 13 13 13 13 14 15 15 16 16 17 17 17 17 18
9 9 8 7 7 8 9 8 8 8 9 9 9 8 5 2 4 4 3 3 4 4 4 3 3 3 4 4 4 4 3 4 4 4 4 4 5 5 6 5 5 4 2 6 6 7 5 4 5 7 5 6 6 7 5 5 7 9 11 12 13 13 13 13 14 14 15 16 16 16 17 17 18 18
9 9 8 8 7 7 9 8 8 8 8 7 7 7 6 4 3 3 4 5 5 4 4 3 3 4 4 5 4 3 3 3 5 5 5 4 4 5 6 6 6 6 5 6 6 7 6 5 5 7 6 7 7 8 6 7 5 9 11 12 14 13 13 14 14 14 15 15 16 16 17 18 19 20
9 9 9 8 8 8 9 8 8 9 9 8 7 6 6 6 7 5 5 5 5 5 4 2 4 4 4 5 2 1 2 4 5 5 5 5 6 6 7 8 9 8 5 5 6 7 6 5 6 7 7 7 8 7 6 4 8 9 10 12 14 14 13 14 14 14 14 15 15 16 17 18 19 21
9 9 8 8 8 9 9 8 9 9 9 9 7 7 7 6 6 6 6 7 6 6 6 4 4 3 3 4 4 3 3 4 4 4 6 6 7 7 9 10 8 7 3 2 5 8 7 7 7 7 7 7 8 8 7 9 9 9 11 12 13 14 13 13 14 15 15 15 15 16 16 17 19 22
8 9 9 8 8 8 9 10 10 8 8 8 7 7 6 6 5 5 4 5 3 0 2 2 2 2 6 6 5 6 4 3 3 4 5 6 7 8 7 7 4 5 1 2 4 6 8 7 8 8 8 8 8 8 9 9 9 10 12 12 13 14 13 12 13 15 16 15 14 14 16 17 18 21
9 8 9 9 8 9 8 13 13 8 6 7 7 6 6 6 6 6 6 6 4 3 2 3 4 5 5 5 3 2 3 3 5 5 6 7 7 7 7 6 5 6 4 5 2 5 9 7 8 9 8 9 9 7 8 8 11 13 11 10 11 12 12 11 12 14 16 15 13 13 15 16 18 22
8 9 8 9 9 9 9 15 13 11 9 7 6 6 7 7 7 7 6 5 5 5 4 4 4 5 6 4 3 4 4 4 4 6 8 7 7 7 7 8 6 6 8 3 4 6 8 8 7 8 8 10 7 7 7 10 11 9 10 8 11 6 9 11 12 13 14 14 14 12 12 14 17 14
8 9 8 8 7 6 12 16 14 13 11 8 7 7 7 8 8 7 8 6 6 6 6 7 7 7 7 6 6 7 11 9 8 8 8 8 8 8 7 7 7 7 7 6 2 6 7 8 8 8 9 9 8 8 10 11 11 10 11 12 12 10 10 12 11 10 10 13 15 13 10 12 13 13
9 9 9 10 4 13 16 15 15 14 13 9 7 7 7 8 8 7 7 7 6 6 7 7 6 6 5 6 7 7 7 7 9 9 8 8 8 8 8 8 7 7 6 2 3 6 7 7 9 8 10 11 10 10 11 12 12 11 11 12 12 14 14 13 12 12 11 14 15 13 10 11 11 11
10 9 9 10 11 13 15 16 16 15 14 9 7 6 7 6 2 4 6 7 3 6 6 6 6 5 6 6 7 7 7 7 8 8 9 8 8 8 8 8 8 7 7 2 3 6 8 8 9 8 9 10 11 12 12 12 12 12 12 11 12 13 12 12 12 12 13 14 15 14 17 16 11 9
9 10 9 9 14 15 14 14 14 14 13 12 7 6 2 10 8 5 4 4 6 6 6 7 7 6 6 6 7 7 7 7 7 7 7 8 9 8 8 8 8 8 8 3 6 6 8 8 8 9 9 10 10 12 13 12 12 12 12 11 12 12 12 12 11 12 12 12 13 14 14 13 7 14
9 9 9 8 16 16 14 14 14 14 13 8 8 3 6 7 5 3 6 5 5 5 6 6 6 6 6 6 6 7 7 7 7 7 7 7 8 8 8 9 8 9 8 9 7 8 7 8 8 9 10 9 11 12 12 12 12 12 14 12 11 11 12 11 12 12 12 12 13 15 14 15 14 16
8 9 8 9 17 16 15 14 14 13 11 9 12 9 7 8 7 6 7 6 6 7 7 7 7 7 6 6 6 6 6 6 6 6 6 7 8 8 8 9 10 10 11 10 9 9 8 9 8 8 9 10 12 12 13 12 12 12 13 12 12 12 11 11 11 12 12 13 13 12 12 13 12 15
6 8 14 15 16 15 15 14 11 9 11 12 8 9 8 8 7 8 7 7 7 7 7 7 7 7 7 7 6 5 3 3 4 5 6 7 8 9 9 9 9 10 8 8 10 10 10 9 8 8 9 9 10 11 11 12 12 12 12 12 12 11 11 11 11 12 12 13 12 12 12 12 12 13
13 14 13 14 13 12 10 8 8 8 9 13 8 6 9 8 8 8 8 8 8 8 7 8 8 7 6 6 6 4 4 6 7 7 8 8 9 9 9 9 10 10 9 9 9 9 9 9 8 8 9 9 10 11 12 13 12 12 11 11 11 10 10 11 11 11 13 13 12 12 12 12 13 12
7 9 8 8 10 9 14 9 7 9 8 8 6 6 7 8 8 9 9 9 8 8 7 7 7 6 6 6 4 5 6 7 7 8 8 8 8 8 8 8 9 8 9 8 7 7 8 8 8 8 9 10 10 11 12 11 12 12 11 11 11 11 11 11 11 12 12 12 12 11 11 11 11 12
8 8 9 10 7 8 8 7 6 7 7 7 8 8 9 9 9 9 7 7 8 8 7 7 7 7 7 6 6 6 7 7 7 6 7 8 8 8 8 8 8 9 9 8 8 7 7 6 7 7 8 9 10 10 10 10 10 11 12 11 11 10 10 11 12 12 12 11 12 12 12 11 11 11
8 8 8 7 8 7 8 6 7 7 7 8 8 9 9 8 8 9 9 9 9 9 8 8 8 8 8 8 7 7 7 6 6 6 7 7 8 8 8 9 8 9 10 9 8 8 6 6 7 7 9 9 10 9 9 9 9 9 10 11 10 10 10 10 11 12 12 12 12 12 12 11 10 11
8 9 8 8 8 8 8 8 7 8 8 8 9 9 9 9 9 10 10 10 10 9 10 10 10 10 9 9 9 8 7 6 6 6 6 7 7 8 8 8 8 9 10 9 8 8 7 8 8 6 9 9 9 8 8 7 8 8 9 10 10 10 10 10 10 12 12 12 12 12 11 11 10 9
6 6 6 7 9 9 9 7 8 8 7 5 5 9 9 9 10 9 11 11 9 8 8 9 9 9 8 8 8 9 7 6 6 6 6 7 8 8 8 9 8 8 9 9 8 7 7 8 8 10 10 11 9 6 11 8 6 8 9 10 9 10 10 9 9 10 11 11 11 10 11 11 12 11
6 6 7 7 9 9 8 6 8 8 8 8 9 9 8 9 9 10 10 11 12 11 11 8 6 6 7 7 8 7 7 6 6 7 7 7 7 7 8 8 9 8 8 9 9 8 8 8 9 10 11 11 9 9 4 7 10 3 7 7 9 9 9 9 9 10 10 10 11 11 8 11 12 11
7 8 9 9 9 8 6 8 8 8 9 10 9 9 9 8 10 10 10 10 11 8 8 6 5 4 4 5 7 4 6 6 5 6 6 6 6 7 7 7 8 8 9 9 9 9 7 8 8 10 10 8 10 9 8 2 9 11 7 8 7 8 6 8 9 9 9 10 11 11 10 8 10 11
7 8 9 8 8 8 7 7 7 8 9 10 9 9 10 9 9 9 9 10 9 7 5 7 5 5 5 6 5 5 7 6 7 4 5 6 5 5 7 7 7 7 8 9 8 8 7 6 7 9 8 7 8 9 8 7 6 3 9 4 4 5 7 6 6 6 7 9 10 10 10 8 9 9
9 8 8 8 8 7 8 8 9 9 10 9 9 9 7 7 7 8 8 9 7 7 7 8 6 5 5 7 7 6 6 5 5 4 4 4 7 8 8 7 7 8 9 9 8 8 8 7 7 8 8 8 9 9 8 9 7 6 4 2 3 4 4 4 5 5 5 6 7 9 9 8 9 4
9 8 7 7 7 7 7 8 10 10 9 8 8 7 7 7 6 6 5 6 6 7 7 6 5 7 7 7 6 5 6 8 6 4 5 4 5 6 7 5 6 6 7 8 6 8 8 9 8 6 7 9 8 6 7 7 7 8 2 4 4 3 3 4 4 5 4 5 6 7 8 7 8 6
8 8 7 7 7 8 8 10 9 8 8 7 7 6 6 6 6 7 8 6 5 5 5 5 5 7 6 6 7 6 5 5 4 4 5 4 4 4 4 6 6 6 7 6 8 8 9 4 6 6 1 7 7 8 7 7 6 5 1 4 1 3 4 4 5 4 3 6 6 6 7 8 8 6
8 7 7 7 8 9 8 7 7 6 6 6 6 6 7 6 6 2 3 2 5 4 4 5 5 6 6 7 6 5 6 5 5 5 5 5 5 4 4 5 6 6 7 7 5 8 8 2 7 3 5 6 5 6 7 6 7 5 6 2 4 2 5 1 3 4 5 5 4 5 6 7 6 5
8 7 7 7 7 7 7 7 7 6 6 6 6 6 5 5 4 3 4 4 4 5 5 5 5 6 6 6 6 6 6 6 6 6 5 4 4 4 5 5 5 8 8 6 7 7 7 9 9 9 5 5 6 6 7 6 6 6 5 6 0 5 3 5 4 4 6 7 6 4 4 4 5 6
7 6 6 6 6 6 6 6 6 6 6 6 5 5 3 3 3 4 4 5 5 6 6 6 6 6 5 5 6 6 7 6 5 5 5 5 5 5 5 6 5 6 6 6 6 6 5 6 6 6 6 6 6 6 6 6 6 5 6 6 3 2 3 4 3 4 4 6 5 4 7 6 4 4
6 7 6 6 6 6 6 6 6 5 5 5 3 3 3 4 4 4 5 5 5 5 5 5 5 5 5 5 5 6 5 6 6 5 5 5 5 5 5 6 7 7 6 6 7 6 6 6 6 5 6 5 4 5 5 6 6 6 6 6 5 4 4 2 3 3 4 4 3 6 9 10 6 5
Wind_Direction
214 218 220 226 231 234 232 235 238 232 240 242 237 231 229 233 251 218 218 219 225 194 189 198 190 196 185 192 192 201 240 132 161 249 253 248 274 136 170 240 270 281 287 298 302 303 304 309 315 316 319 322 324 324 321 323 323 320 319 323 327 327 324 322 321 321 322 325 327 326 326 326 325 325
208 215 214 218 230 229 213 225 225 229 232 234 236 235 238 242 246 251 248 234 200 200 187 217 193 182 192 200 204 212 242 113 204 263 264 267 258 103 234 243 249 259 271 281 288 290 294 306 314 317 319 320 320 319 319 321 322 317 320 324 324 322 321 320 321 323 324 326 326 326 326 326 325 324
205 206 209 211 224 194 213 210 207 216 219 223 229 234 241 241 248 259 260 264 168 196 184 211 214 174 195 198 201 209 250 135 184 249 266 256 82 279 227 222 227 245 250 271 286 302 302 305 306 309 310 314 316 315 318 320 317 318 320 320 318 318 317 318 320 323 325 326 326 326 326 325 324 323
205 201 205 205 206 185 193 198 198 200 209 224 233 233 233 239 242 246 257 256 214 177 200 198 198 182 195 203 212 215 215 123 187 254 237 193 83 248 247 192 209 204 239 258 289 294 299 299 301 308 307 310 311 315 316 315 313 315 315 315 314 312 313 316 319 322 324 325 325 326 325 323 322 321
203 198 203 191 186 174 199 187 189 204 200 206 229 235 231 233 210 228 236 241 225 144 173 188 200 191 200 211 227 236 200 197 199 222 260 254 261 261 270 235 177 189 197 253 278 285 289 294 298 303 304 307 307 309 309 305 308 310 313 313 312 310 312 317 319 320 322 324 325 325 323 322 320 320
190 188 198 181 172 179 192 183 204 195 197 203 204 201 223 219 210 217 234 228 243 189 174 202 201 188 204 243 194 235 240 229 265 273 243 222 237 257 274 283 153 174 162 242 268 281 283 285 289 288 293 295 299 302 301 300 302 306 309 309 308 310 315 318 319 318 321 323 325 324 323 321 321 320
181 183 186 175 164 166 178 184 206 171 196 207 191 184 202 215 212 212 227 240 236 218 193 197 206 199 194 231 210 196 207 252 303 283 268 267 262 247 243 261 259 129 141 191 269 273 275 280 282 283 280 291 297 296 295 295 299 304 306 306 309 313 317 316 315 314 318 322 323 323 322 321 321 321
181 184 182 175 167 170 178 186 181 190 184 193 181 192 189 197 194 206 215 226 257 232 182 204 221 196 198 203 233 187 223 247 239 248 274 268 274 282 280 261 261 132 143 210 256 266 273 274 273 268 280 286 286 287 288 291 297 301 302 304 309 314 316 315 313 314 315 316 317 318 319 320 320 323
186 181 184 173 173 178 184 181 190 183 186 194 185 193 186 190 173 189 207 217 217 200 225 207 214 196 188 196 201 196 236 215 234 231 241 256 273 291 288 283 257 222 199 224 236 251 251 254 251 259 274 272 273 279 281 287 293 295 295 302 310 315 314 313 312 312 312 314 315 318 321 320 321 324
186 184 184 178 180 183 187 183 189 182 189 191 189 188 196 172 155 173 154 156 200 215 233 214 183 192 187 178 204 195 227 270 293 292 271 250 222 236 269 290 282 290 299 279 223 221 240 219 225 253 262 260 261 268 276 279 283 283 292 305 313 312 311 309 310 310 312 313 316 319 320 321 323 325
181 186 185 182 185 186 187 184 184 185 185 185 188 164 171 137 133 151 181 224 220 224 232 202 212 188 188 217 207 193 206 269 279 285 289 292 300 294 286 286 286 269 274 215 205 246 286 293 279 255 239 246 249 259 264 265 265 282 294 307 310 309 308 309 309 311 313 317 320 322 323 322 321 323
181 185 184 185 184 187 186 187 186 184 181 172 175 154 153 135 154 194 222 219 213 212 218 230 196 205 178 190 229 168 210 247 239 231 297 309 305 300 288 262 284 299 286 305 282 206 218 232 231 233 240 238 249 247 249 247 254 266 304 310 309 307 307 308 311 313 316 320 322 323 322 321 319 317
183 183 182 187 187 187 177 173 185 164 109 172 169 142 142 148 166 265 252 217 222 211 214 209 207 206 209 215 202 210 229 245 302 29 300 289 286 290 295 293 212 306 313 314 306 301 314 303 312 318 323 109 206 230 225 190 31 338 314 310 308 308 310 311 312 314 317 319 320 320 320 319 317 315
187 185 181 182 169 154 136 132 114 100 92 33 27 132 140 137 176 225 238 232 220 223 214 218 214 220 221 217 212 246 249 270 279 265 260 278 300 294 294 281 209 214 318 319 306 308 315 313 306 313 313 341 312 337 305 15 328 309 307 304 306 307 309 310 311 314 316 317 318 319 319 317 315 314
183 181 178 170 156 156 152 138 116 113 91 75 70 68 59 4 338 239 216 222 238 235 230 221 218 238 251 238 233 233 241 219 249 271 280 290 299 311 315 318 323 153 334 319 311 303 312 298 306 318 317 333 324 330 339 28 303 294 298 303 305 307 307 308 311 313 314 316 317 317 317 315 313 312
179 176 174 174 168 187 182 174 149 113 96 102 97 101 101 76 16 351 322 297 222 223 241 228 222 239 250 252 220 234 234 256 250 251 271 284 301 303 310 311 310 356 331 311 305 302 302 287 292 304 317 322 333 316 295 238 262 294 297 301 303 305 308 309 311 312 313 314 314 314 315 315 312 310
176 174 173 172 170 168 163 171 164 159 138 108 108 118 144 144 187 255 274 284 310 314 246 240 249 247 264 257 237 229 264 297 294 297 285 294 300 306 301 313 327 320 332 302 302 309 304 285 296 307 318 327 331 306 190 199 287 286 293 301 304 304 306 308 309 310 310 312 312 314 315 315 313 312
177 177 177 174 173 164 171 182 170 174 168 168 168 181 201 207 174 181 194 243 264 267 282 251 238 248 253 271 301 207 225 255 274 289 294 308 306 312 314 315 298 292 276 294 318 297 308 325 308 304 320 327 319 311 322 252 246 262 287 295 298 300 302 303 304 306 310 311 312 312 315 315 316 316
179 179 183 180 175 170 173 182 176 174 176 177 184 194 200 215 197 191 195 205 211 212 226 239 258 265 247 248 245 232 221 245 271 297 304 307 303 295 288 275 259 271 221 233 299 310 316 316 309 309 314 318 316 327 314 183 234 257 271 282 288 292 294 296 304 311 312 310 309 312 314 317 318 318
182 183 183 182 175 168 180 149 167 192 182 181 186 193 203 211 202 197 125 99 68 49 205 241 290 349 35 21 17 12 348 290 276 269 262 262 261 269 278 287 292 284 283 252 300 308 313 313 305 316 315 317 317 316 312 328 320 285 271 272 276 280 287 296 306 310 309 306 306 310 314 318 319 316
181 184 184 180 179 175 179 145 165 176 203 190 196 206 207 205 201 195 155 143 160 193 224 267 302 316 318 316 345 335 350 339 339 306 289 272 269 274 285 295 302 299 330 282 267 316 304 311 316 314 316 318 310 307 307 314 312 298 283 265 270 270 280 291 296 300 301 302 304 308 315 317 320 312
180 180 176 189 182 182 163 151 163 167 185 203 201 209 210 201 203 200 183 174 190 182 212 225 239 235 233 230 219 215 215 218 248 246 260 280 295 290 291 291 304 316 286 315 72 307 305 316 314 313 315 306 311 319 318 310 318 326 324 331 326 280 279 291 287 289 295 301 304 307 313 314 318 321
184 171 169 198 208 189 138 154 160 169 188 205 209 212 211 211 209 204 188 189 196 204 220 220 203 213 202 208 218 203 190 199 211 237 254 269 270 279 289 299 298 290 296 81 53 313 312 316 316 317 322 321 322 326 327 329 335 327 338 344 332 342 324 308 298 297 311 318 316 314 308 309 316 335
186 175 178 180 133 113 144 159 165 174 194 207 210 208 215 216 213 192 190 197 210 214 226 238 221 225 204 193 206 217 183 190 207 222 238 251 265 272 280 284 286 291 300 31 74 320 311 307 313 323 323 326 324 328 322 331 325 334 345 340 337 341 335 333 339 342 343 330 324 322 314 309 322 333
181 180 182 189 151 151 154 167 171 176 191 215 224 210 220 223 176 160 192 176 198 235 249 249 244 232 229 222 225 226 221 210 203 211 224 238 248 259 272 278 282 287 291 68 96 323 308 313 304 318 318 320 324 322 330 324 330 335 344 337 338 343 340 344 340 341 343 338 336 343 339 330 324 314
183 186 181 185 162 167 162 167 173 179 188 203 228 221 199 82 118 192 208 190 202 219 219 228 227 228 229 228 229 229 229 229 221 217 220 222 236 245 252 266 275 285 289 127 141 307 296 295 309 308 312 319 321 319 321 323 328 334 331 340 344 338 342 343 341 342 343 344 344 345 328 325 348 340
178 185 183 157 153 169 166 170 175 181 186 184 219 228 117 131 125 225 223 220 218 216 225 235 238 237 237 237 238 235 236 239 236 230 229 234 234 238 248 259 266 273 280 288 273 269 265 281 293 298 308 312 310 317 317 323 328 328 327 338 339 336 347 345 346 344 342 343 342 337 338 348 8 343
175 175 182 143 154 166 173 173 177 181 173 198 207 206 164 145 170 221 226 221 221 228 236 235 241 243 242 243 241 240 242 249 247 238 234 238 237 247 253 251 251 255 269 278 281 284 284 283 286 291 296 307 311 314 318 319 318 324 328 334 331 340 341 344 346 346 344 345 343 345 348 354 3 351
171 99 106 129 155 165 173 175 167 167 192 214 202 191 158 169 210 214 225 222 220 226 232 238 240 240 238 241 248 253 263 273 273 258 247 244 251 258 256 259 267 273 268 260 265 270 272 271 282 290 294 298 301 306 309 316 319 322 326 325 330 341 337 343 345 348 347 345 345 347 353 354 357 357
94 112 123 137 145 149 149 149 179 193 194 208 208 152 172 207 221 216 215 221 223 229 230 235 240 243 243 239 237 220 223 241 244 242 244 244 240 235 239 246 251 253 253 244 253 268 270 280 287 293 295 294 297 306 311 315 315 320 317 325 333 322 338 339 343 348 351 346 341 347 350 353 360 358
117 120 133 146 153 153 169 180 172 199 171 169 177 199 203 220 222 218 220 223 226 233 243 245 243 239 242 244 228 219 226 237 242 242 246 247 251 251 252 259 266 270 277 277 260 258 280 288 294 298 293 294 295 297 307 310 310 314 319 329 332 331 341 337 342 346 354 342 339 346 351 355 1 3
148 136 110 126 147 137 162 185 187 196 197 200 193 205 207 213 221 226 242 257 247 246 244 247 246 246 244 241 235 237 236 238 236 233 238 242 250 252 257 260 260 270 279 272 266 243 209 261 282 284 283 290 289 296 297 299 304 313 319 328 331 330 336 341 342 347 349 339 339 346 352 0 360 6
148 153 167 174 169 173 178 184 192 186 195 203 204 205 209 210 212 211 212 218 227 235 238 242 244 246 243 239 240 241 244 240 242 239 238 238 250 255 257 259 274 286 290 291 293 301 285 253 217 259 293 295 290 289 295 305 308 313 318 327 331 331 339 341 344 343 339 340 347 342 349 360 0 11
168 179 183 180 181 189 194 192 196 197 201 206 206 204 207 220 227 227 222 226 227 226 236 241 241 241 245 251 249 247 239 240 240 239 240 250 248 249 249 255 257 266 274 281 285 289 293 295 297 266 245 238 237 260 285 292 303 313 320 326 328 332 338 340 342 340 337 344 346 341 348 353 356 16
187 185 185 192 199 201 202 197 200 201 198 208 215 227 222 221 232 234 238 233 232 235 240 240 246 246 238 246 250 253 241 240 249 255 228 231 249 249 250 257 257 265 281 290 293 293 294 298 305 309 314 319 311 265 216 242 310 312 323 325 336 332 334 339 336 337 336 344 346 348 348 348 352 358
191 195 198 202 209 202 204 203 199 199 211 208 221 229 239 236 230 230 234 234 235 234 236 235 228 230 230 234 244 244 238 237 248 254 258 242 240 247 253 256 266 270 275 282 285 289 298 300 302 311 316 321 318 312 342 205 239 273 313 326 331 330 333 333 333 329 341 344 347 349 349 344 351 352
198 201 204 204 208 205 205 198 201 207 220 229 231 234 232 233 236 233 230 231 238 242 240 225 221 221 224 230 241 243 236 231 239 247 257 259 255 254 255 255 251 258 268 268 275 285 290 301 311 312 318 320 315 315 318 155 234 256 310 326 324 334 334 323 327 329 342 344 343 351 345 343 343 355
208 202 205 207 208 207 204 205 208 217 227 231 235 234 241 246 239 235 236 231 219 210 208 216 225 220 227 222 226 230 232 229 233 238 239 245 255 258 257 258 260 255 255 258 265 276 288 290 287 299 317 317 317 313 312 316 316 228 215 313 318 326 317 320 318 332 330 341 346 341 339 341 346 343
206 207 206 204 199 201 205 211 221 228 230 236 236 240 234 226 223 229 227 227 206 210 218 226 226 218 224 229 232 233 230 227 223 227 236 249 253 255 253 255 258 261 267 276 279 282 284 289 294 304 315 319 314 313 309 307 298 317 163 221 349 319 322 324 318 326 329 343 337 335 337 342 333 138
203 203 202 201 200 207 215 221 228 229 232 234 232 220 218 222 224 219 213 209 223 229 230 226 229 227 228 238 235 229 230 230 230 229 229 240 250 259 264 265 262 258 262 267 274 283 291 293 315 338 334 319 313 303 305 293 287 282 220 123 37 348 334 317 321 327 333 343 332 336 340 344 346 341
196 196 199 203 211 215 219 226 227 229 226 217 217 213 221 215 215 219 222 225 219 221 225 228 221 222 230 229 231 228 229 227 225 232 239 245 249 253 264 266 264 262 270 276 272 281 285 330 101 113 329 307 293 290 273 269 277 286 323 128 192 197 298 325 318 325 337 337 339 342 345 345 339 335
191 191 195 199 208 220 220 222 218 215 216 213 214 206 212 221 227 224 227 225 231 230 231 226 226 225 225 223 221 219 225 232 233 234 230 237 244 237 209 220 247 249 253 260 266 272 282 316 147 184 266 288 290 286 291 297 300 304 319 136 143 165 183 174 27 1 354 351 345 355 351 340 341 343
191 198 197 195 200 201 202 204 207 210 214 215 213 211 210 207 211 189 220 222 221 222 225 230 228 228 226 221 218 220 224 222 229 237 248 248 248 256 257 244 231 239 244 254 265 280 293 297 303 308 315 302 293 291 289 300 301 303 304 313 260 157 141 183 153 77 65 45 36 38 23 349 332 349
192 194 195 185 192 199 204 202 204 211 213 212 207 206 207 203 209 211 214 218 220 221 221 228 228 226 225 226 226 223 225 228 223 227 232 240 243 245 251 257 237 232 249 260 271 278 287 295 297 300 305 304 301 295 299 297 293 301 309 313 332 296 190 169 159 157 146 124 108 105 101 78 70 37
186 187 191 190 194 196 199 202 206 207 205 199 194 202 201 210 223 219 222 225 228 227 229 229 228 227 223 227 226 228 226 226 234 233 235 238 243 238 240 246 243 234 238 257 273 277 282 296 301 295 285 282 276 282 291 295 298 307 302 308 301 285 288 238 227 211 188 157 170 182 134 118 131 174